EZY520 EGNS-EGGP

Flight info

Callsign EZY520
Flight time 0h 19m
Altitude 13000
Route IOM L10 PENIL DCT RUGER DCT TIPOD
Aircraft A319/M-SDE2E3FGIJ1RWXYZ/LB1

Departure

Time 2026-05-04 09:29
Airport Isle of Man Airport (EGNS)

Arrival

Time 2026-05-04 09:49
Airport Liverpool John Lennon Airport (EGGP)
Time Latitude Longitude Altitude Speed Heading
2026-05-04 09:03 54.08629 -4.63268 46 ft 0 kts 222°
2026-05-04 09:22 54.08635 -4.63257 45 ft 3 kts 218°
2026-05-04 09:22 54.08652 -4.63239 45 ft 3 kts 200°
2026-05-04 09:22 54.08670 -4.63232 41 ft 3 kts 173°
2026-05-04 09:23 54.08688 -4.63241 45 ft 3 kts 141°
2026-05-04 09:23 54.08694 -4.63249 45 ft 0 kts 134°
2026-05-04 09:25 54.08630 -4.63138 45 ft 12 kts 134°
2026-05-04 09:25 54.08574 -4.63040 46 ft 11 kts 145°
2026-05-04 09:26 54.08492 -4.63007 43 ft 14 kts 168°
2026-05-04 09:26 54.08417 -4.63013 43 ft 9 kts 228°
2026-05-04 09:26 54.08398 -4.63116 43 ft 9 kts 259°
2026-05-04 09:26 54.08384 -4.63230 43 ft 10 kts 257°
2026-05-04 09:27 54.08367 -4.63361 43 ft 12 kts 260°
2026-05-04 09:27 54.08350 -4.63499 43 ft 12 kts 258°
2026-05-04 09:27 54.08333 -4.63613 46 ft 8 kts 247°
2026-05-04 09:27 54.08299 -4.63723 44 ft 14 kts 242°
2026-05-04 09:28 54.08245 -4.63880 43 ft 14 kts 232°
2026-05-04 09:28 54.08161 -4.63870 34 ft 13 kts 139°
2026-05-04 09:28 54.08156 -4.63756 36 ft 0 kts 77°
2026-05-04 09:28 54.08156 -4.63754 36 ft 1 kts 77°
2026-05-04 09:29 54.08195 -4.63440 36 ft 68 kts 78°
2026-05-04 09:29 54.08346 -4.62238 42 ft 138 kts 78°
2026-05-04 09:29 54.08536 -4.60536 553 ft 145 kts 75°
2026-05-04 09:29 54.08735 -4.58844 1242 ft 146 kts 73°
2026-05-04 09:30 54.08962 -4.57051 1727 ft 165 kts 78°
2026-05-04 09:30 54.08700 -4.55012 2107 ft 197 kts 123°
2026-05-04 09:30 54.07534 -4.53497 2491 ft 227 kts 149°
2026-05-04 09:30 54.06085 -4.52098 3054 ft 252 kts 149°
2026-05-04 09:31 54.04523 -4.50562 3876 ft 264 kts 148°
2026-05-04 09:31 54.02921 -4.48970 4889 ft 269 kts 149°
2026-05-04 09:31 54.01291 -4.47334 5878 ft 274 kts 149°
2026-05-04 09:31 53.99637 -4.45663 6863 ft 279 kts 149°
2026-05-04 09:32 53.97957 -4.43959 7794 ft 283 kts 149°
2026-05-04 09:32 53.96256 -4.42227 8724 ft 288 kts 149°
2026-05-04 09:34 53.85411 -4.23807 13054 ft 340 kts 124°
2026-05-04 09:34 53.84088 -4.20599 13080 ft 324 kts 124°
2026-05-04 09:34 53.82814 -4.17509 13079 ft 317 kts 125°
2026-05-04 09:34 53.81554 -4.14456 13087 ft 316 kts 125°
2026-05-04 09:35 53.80295 -4.11408 13083 ft 315 kts 125°
2026-05-04 09:35 53.79061 -4.08410 13096 ft 315 kts 125°
2026-05-04 09:35 53.77806 -4.05367 13093 ft 316 kts 125°
2026-05-04 09:35 53.76550 -4.02321 13081 ft 316 kts 125°
2026-05-04 09:37 53.67739 -3.81068 13096 ft 315 kts 125°
2026-05-04 09:37 53.66480 -3.78051 13100 ft 315 kts 125°
2026-05-04 09:38 53.65193 -3.74970 12897 ft 331 kts 125°
2026-05-04 09:38 53.63864 -3.71792 12462 ft 328 kts 125°
2026-05-04 09:38 53.62565 -3.68692 12124 ft 320 kts 124°
2026-05-04 09:38 53.61204 -3.65756 11571 ft 318 kts 134°
2026-05-04 09:39 53.59620 -3.63177 11157 ft 316 kts 136°
2026-05-04 09:39 53.58043 -3.60622 10767 ft 314 kts 135°
2026-05-04 09:39 53.56476 -3.58081 10370 ft 312 kts 135°
2026-05-04 09:39 53.54917 -3.55553 9980 ft 310 kts 135°
2026-05-04 09:40 53.53389 -3.53082 9836 ft 299 kts 135°
2026-05-04 09:40 53.51909 -3.50691 9314 ft 294 kts 135°
2026-05-04 09:40 53.50449 -3.48332 8776 ft 288 kts 135°
2026-05-04 09:40 53.49025 -3.46010 8369 ft 284 kts 132°
2026-05-04 09:41 53.47861 -3.43357 7964 ft 281 kts 117°
2026-05-04 09:42 53.41643 -3.25861 6402 ft 239 kts 140°
2026-05-04 09:43 53.40330 -3.24085 5736 ft 246 kts 140°
2026-05-04 09:43 53.38987 -3.22270 5126 ft 249 kts 140°
2026-05-04 09:43 53.37649 -3.20470 4658 ft 245 kts 140°
2026-05-04 09:43 53.36339 -3.18708 4307 ft 235 kts 140°
2026-05-04 09:44 53.35108 -3.17055 3968 ft 220 kts 139°
2026-05-04 09:44 53.33945 -3.15492 3635 ft 209 kts 139°
2026-05-04 09:44 53.32930 -3.13854 3311 ft 197 kts 124°
2026-05-04 09:46 53.32662 -2.99909 1703 ft 149 kts 84°
2026-05-04 09:46 53.32740 -2.98273 1507 ft 136 kts 83°
2026-05-04 09:46 53.32813 -2.96720 1324 ft 132 kts 84°
2026-05-04 09:47 53.32885 -2.95209 1147 ft 130 kts 84°
2026-05-04 09:47 53.32956 -2.93706 962 ft 129 kts 85°
2026-05-04 09:49 53.33391 -2.84408 78 ft 47 kts 85°
2026-05-04 09:49 53.33415 -2.83880 81 ft 41 kts 85°
2026-05-04 09:49 53.33439 -2.83638 70 ft 12 kts 44°
2026-05-04 09:51 53.33569 -2.84121 78 ft 14 kts 265°
2026-05-04 09:51 53.33561 -2.84272 78 ft 13 kts 265°
2026-05-04 09:51 53.33554 -2.84437 78 ft 14 kts 266°
2026-05-04 09:51 53.33547 -2.84597 80 ft 13 kts 265°
2026-05-04 09:52 53.33540 -2.84736 82 ft 11 kts 265°
2026-05-04 09:52 53.33535 -2.84845 86 ft 9 kts 265°
2026-05-04 09:52 53.33530 -2.84944 85 ft 9 kts 265°
2026-05-04 09:52 53.33536 -2.85041 85 ft 8 kts 309°
2026-05-04 09:53 53.33585 -2.85065 85 ft 8 kts 357°
2026-05-04 09:53 53.33637 -2.85071 85 ft 7 kts 355°
2026-05-04 09:53 53.33673 -2.85080 86 ft 3 kts 337°
2026-05-04 09:53 53.33677 -2.85100 87 ft 4 kts 289°
2026-05-04 09:54 53.33679 -2.85134 86 ft 1 kts 261°
2026-05-04 09:54 53.33678 -2.85143 86 ft 1 kts 261°
2026-05-04 09:54 53.33677 -2.85154 86 ft 1 kts 262°
2026-05-04 09:54 53.33675 -2.85181 86 ft 2 kts 265°
2026-05-04 09:55 53.33674 -2.85192 86 ft 0 kts 264°
2026-05-04 09:55 53.33674 -2.85203 86 ft 0 kts 264°